| time (UTC) | temp C | wind direction | speed KPH | gust KPH | rain 1hr cm | rain 24hr cm | rain mn cm | humidity % | barometer mb |
| 20260906093016 | 22 | 0.0 | 0.0 | 0.00 | 0.00 | 0.00 | 92 | 1014.8 | |
| 20260906091816 | 22 | 0.0 | 0.0 | 0.00 | 0.00 | 0.00 | 92 | 1014.7 | |
| 20260906090616 | 22 | 200 | 0.0 | 1.6 | 0.00 | 0.00 | 0.00 | 91 | 1014.6 |
| 20260906085436 | 22 | 0.0 | 0.0 | 0.00 | 0.00 | 0.00 | 91 | 1014.3 | |
| 20260906084216 | 22 | 200 | 0.0 | 1.6 | 0.00 | 0.00 | 0.00 | 91 | 1014.2 |
| 20260906083016 | 22 | 0.0 | 0.0 | 0.00 | 0.00 | 0.00 | 91 | 1014.1 | |
| 20260906081816 | 22 | 0.0 | 0.0 | 0.00 | 0.00 | 0.00 | 91 | 1014.1 | |
| 20260906080615 | 22 | 0.0 | 0.0 | 0.00 | 0.00 | 0.00 | 90 | 1014.2 | |
| 20260906075416 | 22 | 0.0 | 1.6 | 0.00 | 0.00 | 0.00 | 90 | 1014.0 | |
| 20260906074216 | 22 | 238 | 0.0 | 1.6 | 0.00 | 0.00 | 0.00 | 90 | 1014.1 |
| 20260906073015 | 23 | 0.0 | 0.0 | 0.00 | 0.00 | 0.00 | 90 | 1014.2 | |
| 20260906071816 | 23 | 0.0 | 1.6 | 0.00 | 0.00 | 0.00 | 89 | 1014.3 | |
| 20260906070635 | 23 | 304 | 0.0 | 1.6 | 0.00 | 0.00 | 0.00 | 90 | 1014.3 |
| 20260906065416 | 23 | 0.0 | 0.0 | 0.00 | 0.00 | 0.00 | 90 | 1014.2 | |
| 20260906064215 | 23 | 304 | 0.0 | 1.6 | 0.00 | 0.00 | 0.00 | 90 | 1014.3 |
| 20260906063016 | 23 | 304 | 0.0 | 1.6 | 0.00 | 0.00 | 0.00 | 89 | 1014.4 |
| 20260906061815 | 23 | 299 | 0.0 | 3.2 | 0.00 | 0.00 | 0.00 | 89 | 1014.6 |
| 20260906060615 | 23 | 339 | 1.6 | 4.8 | 0.00 | 0.00 | 0.00 | 89 | 1014.8 |
| 20260906055415 | 23 | 303 | 3.2 | 4.8 | 0.00 | 0.00 | 0.00 | 89 | 1014.9 |
| 20260906054216 | 24 | 300 | 0.0 | 1.6 | 0.00 | 0.00 | 0.00 | 88 | 1015.0 |
| 20260906053015 | 24 | 300 | 0.0 | 3.2 | 0.00 | 0.00 | 0.00 | 88 | 1014.9 |
| 20260906051815 | 24 | 168 | 0.0 | 1.6 | 0.00 | 0.00 | 0.00 | 86 | 1014.9 |
| 20260906050616 | 24 | 0.0 | 1.6 | 0.00 | 0.00 | 0.00 | 85 | 1014.9 | |
| 20260906045415 | 25 | 0.0 | 1.6 | 0.00 | 0.00 | 0.00 | 84 | 1014.9 | |
| 20260906044215 | 25 | 0.0 | 0.0 | 0.00 | 0.00 | 0.00 | 84 | 1015.0 | |
| 20260906043015 | 25 | 168 | 0.0 | 1.6 | 0.00 | 0.00 | 0.00 | 83 | 1015.0 |
| 20260906041816 | 25 | 127 | 0.0 | 1.6 | 0.00 | 0.00 | 0.00 | 82 | 1015.2 |
| 20260906040616 | 25 | 127 | 1.6 | 3.2 | 0.00 | 0.00 | 0.00 | 82 | 1015.2 |
| 20260906035416 | 25 | 0.0 | 0.0 | 0.00 | 0.00 | 0.00 | 82 | 1015.4 | |
| 20260906034215 | 25 | 200 | 0.0 | 1.6 | 0.00 | 0.00 | 0.00 | 82 | 1015.2 |
| 20260906033016 | 25 | 257 | 0.0 | 1.6 | 0.00 | 0.00 | 0.00 | 81 | 1015.4 |
| 20260906031816 | 25 | 303 | 0.0 | 3.2 | 0.00 | 0.00 | 0.00 | 81 | 1015.7 |
| 20260906030635 | 26 | 54 | 1.6 | 3.2 | 0.00 | 0.00 | 0.00 | 80 | 1015.6 |
| 20260906025416 | 26 | 59 | 0.0 | 3.2 | 0.00 | 0.00 | 0.00 | 80 | 1015.5 |
| 20260906024236 | 26 | 58 | 1.6 | 3.2 | 0.00 | 0.00 | 0.00 | 79 | 1015.5 |
| 20260906023015 | 26 | 128 | 0.0 | 1.6 | 0.00 | 0.00 | 0.00 | 78 | 1015.7 |
| 20260906021815 | 26 | 200 | 0.0 | 1.6 | 0.00 | 0.00 | 0.00 | 76 | 1015.9 |
| 20260906020616 | 26 | 200 | 0.0 | 1.6 | 0.00 | 0.00 | 0.00 | 76 | 1015.8 |
| 20260906015416 | 26 | 200 | 0.0 | 1.6 | 0.00 | 0.00 | 0.00 | 75 | 1015.5 |
| 20260906014216 | 26 | 200 | 1.6 | 3.2 | 0.00 | 0.00 | 0.00 | 75 | 1015.1 |
| 20260906013056 | 26 | 200 | 0.0 | 1.6 | 0.00 | 0.00 | 0.00 | 76 | 1015.0 |
| 20260906011815 | 26 | 0.0 | 1.6 | 0.00 | 0.00 | 0.00 | 75 | 1014.7 | |
| 20260906010615 | 26 | 200 | 0.0 | 3.2 | 0.00 | 0.00 | 0.00 | 75 | 1014.4 |
| 20260906005415 | 26 | 302 | 0.0 | 3.2 | 0.00 | 0.00 | 0.00 | 75 | 1014.5 |
| 20260906004216 | 26 | 236 | 1.6 | 1.6 | 0.00 | 0.00 | 0.00 | 74 | 1014.2 |
| 20260906003015 | 27 | 239 | 3.2 | 4.8 | 0.00 | 0.00 | 0.00 | 73 | 1014.2 |
| 20260906001815 | 27 | 52 | 1.6 | 3.2 | 0.00 | 0.00 | 0.00 | 71 | 1014.2 |
| 20260906000615 | 27 | 101 | 3.2 | 8.0 | 0.00 | 0.00 | 0.00 | 69 | 1014.3 |
| 20260905235416 | 28 | 82 | 1.6 | 4.8 | 0.00 | 0.00 | 0.00 | 66 | 1014.4 |
| 20260905234215 | 28 | 336 | 1.6 | 4.8 | 0.00 | 0.00 | 0.00 | 64 | 1014.2 |
| 20260905233015 | 29 | 306 | 0.0 | 1.6 | 0.00 | 0.00 | 0.00 | 63 | 1014.1 |
| 20260905231815 | 29 | 211 | 0.0 | 3.2 | 0.00 | 0.00 | 0.00 | 61 | 1014.1 |
| 20260905230615 | 30 | 320 | 3.2 | 6.4 | 0.00 | 0.00 | 0.00 | 59 | 1013.8 |
| 20260905225415 | 30 | 9 | 1.6 | 3.2 | 0.00 | 0.00 | 0.00 | 58 | 1013.7 |
| 20260905224215 | 30 | 86 | 1.6 | 4.8 | 0.00 | 0.00 | 0.00 | 58 | 1013.7 |
| 20260905223015 | 31 | 75 | 3.2 | 6.4 | 0.00 | 0.00 | 0.00 | 55 | 1014.0 |
| 20260905221815 | 32 | 43 | 3.2 | 6.4 | 0.00 | 0.00 | 0.00 | 52 | 1013.7 |
| 20260905220615 | 33 | 153 | 4.8 | 16.1 | 0.00 | 0.00 | 0.00 | 52 | 1013.8 |
| 20260905215415 | 37 | 305 | 6.4 | 11.3 | 0.00 | 0.00 | 0.00 | 42 | 1013.4 |
| 20260905214215 | 37 | 215 | 1.6 | 8.0 | 0.00 | 0.00 | 0.00 | 43 | 1013.1 |
| 20260905213035 | 38 | 265 | 3.2 | 9.7 | 0.00 | 0.00 | 0.00 | 42 | 1013.1 |
| 20260905211815 | 38 | 278 | 4.8 | 14.5 | 0.00 | 0.00 | 0.00 | 41 | 1013.1 |
| 20260905210615 | 37 | 302 | 1.6 | 6.4 | 0.00 | 0.00 | 0.00 | 42 | 1013.2 |
| 20260905205415 | 37 | 32 | 3.2 | 6.4 | 0.00 | 0.00 | 0.00 | 43 | 1013.4 |
| 20260905204215 | 37 | 318 | 4.8 | 9.7 | 0.00 | 0.00 | 0.00 | 43 | 1013.4 |
| 20260905203015 | 37 | 314 | 3.2 | 8.0 | 0.00 | 0.00 | 0.00 | 43 | 1013.2 |
| 20260905201815 | 37 | 294 | 4.8 | 11.3 | 0.00 | 0.00 | 0.00 | 42 | 1013.4 |
| 20260905200617 | 37 | 62 | 3.2 | 6.4 | 0.00 | 0.00 | 0.00 | 44 | 1013.5 |
| 20260905195417 | 37 | 52 | 3.2 | 6.4 | 0.00 | 0.00 | 0.00 | 43 | 1013.7 |
| 20260905194217 | 37 | 59 | 1.6 | 3.2 | 0.00 | 0.00 | 0.00 | 43 | 1013.7 |
| 20260905193057 | 37 | 253 | 4.8 | 9.7 | 0.00 | 0.00 | 0.00 | 44 | 1013.9 |
| 20260905191817 | 37 | 207 | 4.8 | 8.0 | 0.00 | 0.00 | 0.00 | 44 | 1014.0 |
| 20260905190657 | 37 | 138 | 1.6 | 6.4 | 0.00 | 0.00 | 0.00 | 45 | 1014.2 |
| 20260905185437 | 36 | 21 | 3.2 | 8.0 | 0.00 | 0.00 | 0.00 | 45 | 1014.4 |
| 20260905184217 | 36 | 185 | 3.2 | 8.0 | 0.00 | 0.00 | 0.00 | 44 | 1014.6 |
| 20260905183017 | 36 | 113 | 3.2 | 12.9 | 0.00 | 0.00 | 0.00 | 45 | 1014.8 |
| 20260905181837 | 36 | 118 | 1.6 | 4.8 | 0.00 | 0.00 | 0.00 | 46 | 1015.1 |
| 20260905180617 | 36 | 66 | 3.2 | 6.4 | 0.00 | 0.00 | 0.00 | 46 | 1015.3 |
| 20260905175417 | 36 | 85 | 4.8 | 11.3 | 0.00 | 0.00 | 0.00 | 49 | 1015.3 |
| 20260905174217 | 36 | 132 | 3.2 | 9.7 | 0.00 | 0.00 | 0.00 | 48 | 1015.6 |
| 20260905173017 | 36 | 77 | 3.2 | 6.4 | 0.00 | 0.00 | 0.00 | 49 | 1015.7 |
| 20260905171817 | 35 | 271 | 1.6 | 6.4 | 0.00 | 0.00 | 0.00 | 53 | 1015.7 |
| 20260905170617 | 35 | 223 | 3.2 | 6.4 | 0.00 | 0.00 | 0.00 | 54 | 1015.8 |
| 20260905165416 | 35 | 2 | 3.2 | 8.0 | 0.00 | 0.00 | 0.00 | 53 | 1016.2 |
| 20260905164216 | 34 | 168 | 1.6 | 6.4 | 0.00 | 0.00 | 0.00 | 55 | 1016.4 |
| 20260905163017 | 34 | 212 | 3.2 | 6.4 | 0.00 | 0.00 | 0.00 | 56 | 1016.7 |
| 20260905161837 | 33 | 190 | 3.2 | 8.0 | 0.00 | 0.00 | 0.00 | 58 | 1017.0 |
| 20260905160617 | 33 | 288 | 6.4 | 11.3 | 0.00 | 0.00 | 0.00 | 58 | 1017.1 |
| 20260905155417 | 32 | 173 | 3.2 | 6.4 | 0.00 | 0.00 | 0.00 | 62 | 1017.2 |
| 20260905154216 | 32 | 315 | 4.8 | 8.0 | 0.00 | 0.00 | 0.00 | 61 | 1017.2 |
| 20260905153016 | 32 | 266 | 3.2 | 6.4 | 0.00 | 0.00 | 0.00 | 63 | 1017.3 |
| 20260905151816 | 32 | 323 | 3.2 | 11.3 | 0.00 | 0.00 | 0.00 | 67 | 1017.3 |
| 20260905150617 | 31 | 310 | 3.2 | 8.0 | 0.00 | 0.00 | 0.00 | 68 | 1017.4 |
| 20260905145416 | 31 | 293 | 3.2 | 6.4 | 0.00 | 0.00 | 0.00 | 70 | 1017.5 |
| 20260905144237 | 30 | 261 | 4.8 | 11.3 | 0.00 | 0.00 | 0.00 | 71 | 1017.6 |
| 20260905143016 | 30 | 285 | 1.6 | 6.4 | 0.00 | 0.00 | 0.00 | 73 | 1017.6 |
| 20260905141836 | 30 | 269 | 3.2 | 8.0 | 0.00 | 0.00 | 0.00 | 74 | 1017.8 |
| 20260905140616 | 29 | 323 | 1.6 | 6.4 | 0.00 | 0.00 | 0.00 | 76 | 1017.9 |
| 20260905135416 | 28 | 243 | 3.2 | 6.4 | 0.00 | 0.00 | 0.00 | 79 | 1017.9 |
| 20260905134216 | 28 | 309 | 3.2 | 6.4 | 0.00 | 0.00 | 0.00 | 81 | 1018.0 |
| 20260905133016 | 27 | 192 | 1.6 | 6.4 | 0.00 | 0.00 | 0.00 | 83 | 1017.9 |
| 20260905131816 | 26 | 184 | 1.6 | 3.2 | 0.00 | 0.00 | 0.00 | 87 | 1017.9 |
| 20260905130616 | 26 | 276 | 3.2 | 6.4 | 0.00 | 0.00 | 0.00 | 89 | 1018.0 |
| 20260905125417 | 25 | 263 | 1.6 | 4.8 | 0.00 | 0.00 | 0.00 | 91 | 1018.2 |
| 20260905124216 | 25 | 300 | 3.2 | 4.8 | 0.00 | 0.00 | 0.00 | 93 | 1018.1 |
| 20260905123016 | 24 | 204 | 0.0 | 4.8 | 0.00 | 0.00 | 0.00 | 94 | 1017.8 |
| 20260905121816 | 24 | 204 | 0.0 | 1.6 | 0.00 | 0.00 | 0.00 | 96 | 1017.7 |
| 20260905120616 | 23 | 0.0 | 0.0 | 0.00 | 0.00 | 0.00 | 97 | 1017.7 | |
| 20260905115416 | 23 | 204 | 0.0 | 1.6 | 0.00 | 0.00 | 0.00 | 96 | 1017.6 |
| 20260905114216 | 23 | 0.0 | 0.0 | 0.00 | 0.00 | 0.00 | 96 | 1017.6 | |
| 20260905113016 | 23 | 0.0 | 0.0 | 0.00 | 0.00 | 0.00 | 96 | 1017.6 | |
| 20260905111816 | 23 | 0.0 | 0.0 | 0.00 | 0.00 | 0.00 | 95 | 1017.5 | |
| 20260905110636 | 23 | 0.0 | 0.0 | 0.00 | 0.00 | 0.00 | 95 | 1017.4 | |
| 20260905105416 | 23 | 204 | 0.0 | 1.6 | 0.00 | 0.00 | 0.00 | 95 | 1017.2 |
| 20260905104216 | 23 | 0.0 | 0.0 | 0.00 | 0.00 | 0.00 | 95 | 1017.3 | |
| 20260905103016 | 23 | 0.0 | 0.0 | 0.00 | 0.00 | 0.00 | 95 | 1017.1 | |
| 20260905101816 | 23 | 0.0 | 0.0 | 0.00 | 0.00 | 0.00 | 94 | 1017.0 | |
| 20260905100616 | 23 | 204 | 0.0 | 1.6 | 0.00 | 0.00 | 0.00 | 95 | 1016.9 |
| 20260905095416 | 23 | 0.0 | 1.6 | 0.00 | 0.00 | 0.00 | 94 | 1016.9 | |
| 20260905094216 | 23 | 0.0 | 3.2 | 0.00 | 0.00 | 0.00 | 95 | 1017.0 |